Weather History for Mekoryuk, AK

Change the Weather History Date:

Sunday, November 4, 2012

  Actual Average Record
Temperature  
Mean Temperature 22 °F -  
Max Temperature 24 °F 31 °F 43 °F (1986)
Min Temperature 19 °F 24 °F 2 °F (1985)
Degree Days  
Heating Degree Days 44    
Moisture  
Dew Point 11 °F    
Average Humidity 64    
Maximum Humidity 74    
Minimum Humidity 58    
Precipitation  
Precipitation 0.00 in - - ()
Sea Level Pressure  
Sea Level Pressure 29.99 in    
Wind  
Wind Speed 28 mph (NNE)    
Max Wind Speed 36 mph    
Max Gust Speed 43 mph    
Visibility 10 miles    
Events      
Averages and records for this station are not official NWS values.
T = Trace of Precipitation, MM = Missing Value Source: NWS Daily Summary

Daily Weather History Graph

Daily Weather History Graph

Search for Another Location

Airport:

Trip Planner

Search our weather history database for the weather conditions in past years. The results will help you decide how hot, cold, wet, or windy it might be!

Date:

Astronomy

Nov. 04, 2012 Rise Set
Actual Time 9:38 AM AKST 5:57 PM AKST
Civil Twilight 8:52 AM AKST 6:44 PM AKST
Nautical Twilight 8:01 AM AKST 7:34 PM AKST
Astronomical Twilight 7:12 AM AKST 8:23 PM AKST
Moon 10:36 PM AKST (11/4) 2:46 PM AKST (11/4)
Length of Visible Light 9h 52m
Length of Day
8h 18m
Waning Gibbous, 70% of the Moon is Illuminated
Nov 4
Waning Gibbous
Nov 6
Last Quarter
Nov 13
New
Nov 20
First Quarter
Nov 28
Full

Hourly Weather History & Observations

Time (AKST) Temp. Windchill Dew Point Humidity Pressure Visibility Wind Dir Wind Speed Gust Speed Precip Events Conditions
12:16 AM 21.2 °F 3.0 °F 8.6 °F 58% 29.92 in 10.0 mi NNE 29.9 mph 36.8 mph N/A   Partly Cloudy
12:36 AM 21.2 °F 3.3 °F 10.4 °F 63% 29.92 in 10.0 mi NNE 28.8 mph 35.7 mph N/A   Partly Cloudy
12:56 AM 21.2 °F 2.7 °F 8.6 °F 58% 29.92 in 10.0 mi NNE 31.1 mph 36.8 mph N/A   Partly Cloudy
1:16 AM 21.2 °F 2.4 °F 10.4 °F 63% 29.92 in 10.0 mi NNE 32.2 mph 39.1 mph N/A   Clear
1:36 AM 21.2 °F 2.7 °F 8.6 °F 58% 29.92 in 10.0 mi NNE 31.1 mph 36.8 mph N/A   Clear
1:56 AM 21.2 °F 3.5 °F 8.6 °F 58% 29.92 in 10.0 mi NNE 27.6 mph 38.0 mph N/A   Clear
1:16 AM 21.2 °F 2.4 °F 8.6 °F 58% 29.92 in 10.0 mi NNE 32.2 mph 39.1 mph N/A   Clear
1:36 AM 21.2 °F 2.4 °F 10.4 °F 63% 29.92 in 10.0 mi NNE 32.2 mph 39.1 mph N/A   Clear
1:56 AM 21.2 °F 2.4 °F 10.4 °F 63% 29.92 in 10.0 mi NNE 32.2 mph 38.0 mph N/A   Clear
2:16 AM 21.2 °F 2.7 °F 8.6 °F 58% 29.92 in 10.0 mi NNE 31.1 mph 39.1 mph N/A   Clear
3:36 AM 19.4 °F -0.0 °F 10.4 °F 68% 29.91 in 10.0 mi NNE 32.2 mph 40.3 mph N/A   Partly Cloudy
3:56 AM 19.4 °F -0.0 °F 10.4 °F 68% 29.91 in 10.0 mi NNE 32.2 mph 40.3 mph N/A   Partly Cloudy
4:16 AM 19.4 °F -0.0 °F 10.4 °F 68% 29.91 in 10.0 mi NNE 32.2 mph 42.6 mph N/A   Partly Cloudy
4:36 AM 19.4 °F 0.2 °F 10.4 °F 68% 29.92 in 10.0 mi NNE 31.1 mph 39.1 mph N/A   Partly Cloudy
4:56 AM 19.4 °F -0.8 °F 12.2 °F 74% 29.92 in 10.0 mi NNE 35.7 mph 40.3 mph N/A   Scattered Clouds
5:16 AM 19.4 °F -0.0 °F 12.2 °F 74% 29.92 in 10.0 mi NNE 32.2 mph 41.4 mph N/A   Partly Cloudy
5:36 AM 19.4 °F 0.5 °F 10.4 °F 68% 29.92 in 10.0 mi NNE 29.9 mph 40.3 mph N/A   Clear
5:56 AM 19.4 °F 0.2 °F 10.4 °F 68% 29.92 in 10.0 mi NNE 31.1 mph 40.3 mph N/A   Clear
6:16 AM 21.2 °F 3.5 °F 10.4 °F 63% 29.93 in 10.0 mi NNE 27.6 mph 36.8 mph N/A   Partly Cloudy
6:36 AM 21.2 °F 4.5 °F 10.4 °F 63% 29.94 in 10.0 mi NNE 24.2 mph 35.7 mph N/A   Scattered Clouds
6:56 AM 21.2 °F 3.3 °F 10.4 °F 63% 29.94 in 10.0 mi NNE 28.8 mph 34.5 mph N/A   Partly Cloudy
7:16 AM 21.2 °F 3.0 °F 12.2 °F 68% 29.94 in 10.0 mi NNE 29.9 mph 36.8 mph N/A   Partly Cloudy
7:36 AM 21.2 °F 3.9 °F 10.4 °F 63% 29.95 in 10.0 mi NNE 26.5 mph 34.5 mph N/A   Partly Cloudy
7:56 AM 21.2 °F 3.0 °F 10.4 °F 63% 29.95 in 10.0 mi NNE 29.9 mph 34.5 mph N/A   Clear
8:16 AM 21.2 °F 3.9 °F 12.2 °F 68% 29.95 in 10.0 mi NNE 26.5 mph 34.5 mph N/A   Partly Cloudy
8:36 AM 21.2 °F 4.2 °F 10.4 °F 63% 29.95 in 10.0 mi NNE 25.3 mph 36.8 mph N/A   Clear
8:56 AM 19.4 °F 0.2 °F 10.4 °F 68% 29.95 in 10.0 mi NNE 31.1 mph 36.8 mph N/A   Clear
9:16 AM 19.4 °F 1.1 °F 10.4 °F 68% 29.96 in 10.0 mi NNE 27.6 mph 34.5 mph N/A   Clear
9:36 AM 19.4 °F 2.5 °F 10.4 °F 68% 29.97 in 10.0 mi NNE 23.0 mph 35.7 mph N/A   Partly Cloudy
9:56 AM 19.4 °F 1.1 °F 10.4 °F 68% 29.97 in 10.0 mi NNE 27.6 mph 34.5 mph N/A   Scattered Clouds
10:16 AM 21.2 °F 2.7 °F 10.4 °F 63% 29.96 in 10.0 mi NE 31.1 mph 39.1 mph N/A   Partly Cloudy
10:36 AM 21.2 °F 3.5 °F 10.4 °F 63% 29.97 in 10.0 mi NNE 27.6 mph 35.7 mph N/A   Clear
10:56 AM 21.2 °F 3.5 °F 10.4 °F 63% 29.98 in 10.0 mi NNE 27.6 mph 34.5 mph N/A   Clear
11:16 AM 21.2 °F 3.3 °F 10.4 °F 63% 29.97 in 10.0 mi NNE 28.8 mph 36.8 mph N/A   Clear
11:36 AM 21.2 °F 3.3 °F 10.4 °F 63% 29.98 in 10.0 mi NNE 28.8 mph 39.1 mph N/A   Clear
11:56 AM 21.2 °F 3.3 °F 10.4 °F 63% 29.98 in 10.0 mi NNE 28.8 mph 38.0 mph N/A   Clear
12:16 PM 21.2 °F 3.3 °F 10.4 °F 63% 29.98 in 10.0 mi NNE 28.8 mph 34.5 mph N/A   Clear
12:36 PM 21.2 °F 3.9 °F 10.4 °F 63% 29.99 in 10.0 mi NNE 26.5 mph 36.8 mph N/A   Clear
12:56 PM 21.2 °F 3.9 °F 8.6 °F 58% 29.99 in 10.0 mi NNE 26.5 mph 35.7 mph N/A   Clear
1:16 PM 21.2 °F 4.2 °F 10.4 °F 63% 30.00 in 10.0 mi NNE 25.3 mph 33.4 mph N/A   Clear
1:36 PM 21.2 °F 4.2 °F 10.4 °F 63% 30.00 in 10.0 mi NNE 25.3 mph 31.1 mph N/A   Partly Cloudy
1:56 PM 21.2 °F 4.5 °F 10.4 °F 63% 30.00 in 10.0 mi NNE 24.2 mph 31.1 mph N/A   Clear
2:16 PM 21.2 °F 4.9 °F 10.4 °F 63% 30.00 in 10.0 mi NNE 23.0 mph 32.2 mph N/A   Clear
2:36 PM 23.0 °F 6.9 °F 10.4 °F 59% 30.01 in 10.0 mi NNE 24.2 mph - N/A   Clear
2:56 PM 23.0 °F 6.9 °F 10.4 °F 59% 30.01 in 10.0 mi NNE 24.2 mph 29.9 mph N/A   Clear
3:16 PM 23.0 °F 6.6 °F 10.4 °F 59% 30.00 in 10.0 mi NNE 25.3 mph 33.4 mph N/A   Clear
3:36 PM 23.0 °F 8.0 °F 10.4 °F 59% 30.01 in 10.0 mi NNE 20.7 mph 31.1 mph N/A   Clear
3:56 PM 23.0 °F 8.0 °F 10.4 °F 59% 30.02 in 10.0 mi NNE 20.7 mph 27.6 mph N/A   Clear
4:16 PM 23.0 °F 6.9 °F 12.2 °F 63% 30.02 in 10.0 mi NNE 24.2 mph 28.8 mph N/A   Clear
4:36 PM 21.2 °F 4.5 °F 10.4 °F 63% 30.01 in 10.0 mi NNE 24.2 mph 27.6 mph N/A   Clear
4:56 PM 21.2 °F 4.2 °F 10.4 °F 63% 30.01 in 10.0 mi NNE 25.3 mph 32.2 mph N/A   Clear
5:16 PM 21.2 °F 4.2 °F 8.6 °F 58% 30.02 in 10.0 mi NE 25.3 mph 29.9 mph N/A   Clear
5:36 PM 21.2 °F 5.2 °F 8.6 °F 58% 30.04 in 10.0 mi NE 21.9 mph 28.8 mph N/A   Clear
5:56 PM 21.2 °F 4.9 °F 8.6 °F 58% 30.04 in 10.0 mi NNE 23.0 mph 29.9 mph N/A   Clear
6:16 PM 21.2 °F 5.6 °F 10.4 °F 63% 30.05 in 10.0 mi NNE 20.7 mph 26.5 mph N/A   Clear
6:36 PM 21.2 °F 4.9 °F 10.4 °F 63% 30.06 in 10.0 mi NE 23.0 mph 28.8 mph N/A   Clear
6:56 PM 21.2 °F 5.6 °F 10.4 °F 63% 30.07 in 10.0 mi NNE 20.7 mph 26.5 mph N/A   Clear
7:16 PM 21.2 °F 6.8 °F 10.4 °F 63% 30.07 in 10.0 mi NNE 17.3 mph 26.5 mph N/A   Clear
7:36 PM 21.2 °F 4.9 °F 10.4 °F 63% 30.07 in 10.0 mi NE 23.0 mph 28.8 mph N/A   Clear
7:56 PM 21.2 °F 4.9 °F 10.4 °F 63% 30.08 in 10.0 mi NE 23.0 mph 31.1 mph N/A   Clear
8:16 PM 21.2 °F 4.5 °F 10.4 °F 63% 30.08 in 10.0 mi NNE 24.2 mph 28.8 mph N/A   Clear
8:36 PM 21.2 °F 4.9 °F 10.4 °F 63% 30.09 in 10.0 mi NE 23.0 mph 27.6 mph N/A   Clear
8:56 PM 23.0 °F 7.2 °F 10.4 °F 59% 30.09 in 10.0 mi NE 23.0 mph - N/A   Clear
9:16 PM 23.0 °F 7.2 °F 12.2 °F 63% 30.09 in 10.0 mi NE 23.0 mph 31.1 mph N/A   Clear
9:36 PM 23.0 °F 6.6 °F 14.0 °F 68% 30.09 in 10.0 mi NE 25.3 mph 32.2 mph N/A   Clear
9:56 PM 24.8 °F 9.0 °F 12.2 °F 59% 30.10 in 10.0 mi NNE 25.3 mph 29.9 mph N/A   Clear
10:16 PM 24.8 °F 8.1 °F 15.8 °F 69% 30.10 in 10.0 mi NNE 28.8 mph 32.2 mph N/A   Scattered Clouds
10:36 PM 24.8 °F 9.3 °F 17.6 °F 74% 30.11 in 10.0 mi NE 24.2 mph 29.9 mph N/A   Mostly Cloudy
10:56 PM 24.8 °F 10.3 °F 17.6 °F 74% 30.12 in 10.0 mi NNE 20.7 mph 26.5 mph N/A   Mostly Cloudy